Parkersburg, WV

1:21 PM EST on January 17, 2017 (GMT -0500)
Wood County Wilson

Weather History for KPKB - November, 2012

Change the Weather History Date:

Friday, November 9, 2012

  Actual Average Record
Temperature  
Mean Temperature 42 °F 48 °F  
Max Temperature 57 °F 58 °F 79 °F (1975)
Min Temperature 26 °F 38 °F 18 °F (1991)
Degree Days  
Heating Degree Days 23 17  
Month to date heating degree days 217 144  
Since 1 July heating degree days 660 538  
Cooling Degree Days 0 0  
Month to date cooling degree days 0 0  
Year to date cooling degree days 1180 953  
Moisture  
Dew Point 29 °F    
Average Humidity 67    
Maximum Humidity 92    
Minimum Humidity 41    
Precipitation  
Precipitation 0.00 in 0.10 in 0.45 in (2005)
Month to date precipitation 0.13 0.96  
Year to date precipitation 36.24 35.69  
Sea Level Pressure  
Sea Level Pressure 30.26 in    
Wind  
Wind Speed 2 mph (South)    
Max Wind Speed 12 mph    
Max Gust Speed 17 mph    
Visibility 8 miles    
Events      
T = Trace of Precipitation, MM = Missing Value Source: NWS Daily Summary

Daily Weather History Graph

Daily Weather History Graph

Search for Another Location

Airport or City:

Trip Planner

Search our weather history database for the weather conditions in past years. The results will help you decide how hot, cold, wet, or windy it might be!

Date:

Astronomy

Nov. 09, 2012 Rise Set
Actual Time 7:03 AM EST 5:15 PM EST
Civil Twilight 6:34 AM EST 5:43 PM EST
Nautical Twilight 6:02 AM EST 6:16 PM EST
Astronomical Twilight 5:31 AM EST 6:47 PM EST
Moon 2:02 AM EST (11/9) 2:26 PM EST (11/9)
Length of Visible Light 11h 09m
Length of Day
10h 12m
Waning Crescent, 23% of the Moon is Illuminated
Nov 9
Waning Crescent
Nov 13
New
Nov 20
First Quarter
Nov 28
Full
Dec 6
Last Quarter

Hourly Weather History & Observations

Time (EST) Temp. Windchill Dew Point Humidity Pressure Visibility Wind Dir Wind Speed Gust Speed Precip Events Conditions
12:53 AM 28.9 °F - 26.1 °F 89% 30.24 in 7.0 mi Calm Calm - N/A   Clear
1:53 AM 28.0 °F 24.2 °F 25.0 °F 88% 30.24 in 6.0 mi SE 3.5 mph - N/A   Clear
2:53 AM 28.0 °F - 25.0 °F 88% 30.25 in 7.0 mi Calm Calm - N/A   Clear
3:53 AM 27.0 °F - 24.1 °F 89% 30.25 in 6.0 mi Calm Calm - N/A   Clear
4:53 AM 27.0 °F - 24.1 °F 89% 30.28 in 6.0 mi Calm Calm - N/A   Clear
5:53 AM 26.1 °F - 23.0 °F 88% 30.30 in 6.0 mi Calm Calm - N/A   Clear
6:53 AM 26.1 °F - 23.0 °F 88% 30.30 in 6.0 mi Calm Calm - N/A   Clear
7:53 AM 28.0 °F - 24.1 °F 85% 30.33 in 8.0 mi Calm Calm - N/A   Clear
8:53 AM 34.0 °F - 28.9 °F 82% 30.34 in 8.0 mi Calm Calm - N/A   Clear
9:53 AM 43.0 °F 41.3 °F 32.0 °F 65% 30.33 in 10.0 mi South 3.5 mph - N/A   Clear
10:53 AM 46.9 °F - 32.0 °F 56% 30.32 in 10.0 mi South 4.6 mph - N/A   Clear
11:53 AM 52.0 °F - 33.1 °F 49% 30.30 in 10.0 mi South 6.9 mph - N/A   Clear
12:53 PM 54.0 °F - 33.1 °F 45% 30.27 in 10.0 mi SW 10.4 mph - N/A   Clear
1:53 PM 55.0 °F - 33.1 °F 43% 30.24 in 10.0 mi Variable 3.5 mph - N/A   Clear
2:53 PM 55.9 °F - 32.0 °F 40% 30.22 in 10.0 mi SW 8.1 mph - N/A   Clear
3:53 PM 55.9 °F - 32.0 °F 40% 30.23 in 10.0 mi SSW 8.1 mph - N/A   Clear
4:53 PM 54.0 °F - 32.0 °F 43% 30.23 in 10.0 mi SSW 3.5 mph - N/A   Clear
5:53 PM 53.1 °F - 30.9 °F 43% 30.23 in 10.0 mi Calm Calm - N/A   Clear
6:53 PM 46.0 °F - 32.0 °F 58% 30.25 in 10.0 mi Calm Calm - N/A   Clear
7:53 PM 43.0 °F - 32.0 °F 65% 30.25 in 9.0 mi Calm Calm - N/A   Clear
8:53 PM 41.0 °F - 32.0 °F 70% 30.25 in 5.0 mi Calm Calm - N/A   Haze
9:53 PM 37.9 °F 35.5 °F 30.9 °F 76% 30.24 in 4.0 mi ESE 3.5 mph - N/A   Haze
10:53 PM 37.9 °F - 30.9 °F 76% 30.23 in 5.0 mi Calm Calm - N/A   Haze
11:53 PM 36.0 °F - 30.0 °F 79% 30.23 in 5.0 mi Calm Calm - N/A   Haze